This is the latest recevied weather packets stored in our database for station/object K7FRY. If no packets are shown the sender has not sent any weather packets the latest 10 day(s).
| Time | Temp. | Humidity | Pressure | Rain* | Wind** | Luminosity | Snow |
|---|---|---|---|---|---|---|---|
| 1777424618 | 27.22° C | 15% | 1015 hPa | 0 mm | - | 54 W/m² | - |
| 1777424312 | 27.22° C | 15% | 1015 hPa | 0 mm | - | 62 W/m² | - |
| 1777424009 | 27.78° C | 15% | 1015 hPa | 0 mm | - | 73 W/m² | - |
| 1777423706 | 27.78° C | 15% | 1015 hPa | 0 mm | - | 95 W/m² | - |
| 1777423402 | 27.78° C | 14% | 1015 hPa | 0 mm | - | 163 W/m² | - |
| 1777423101 | 28.33° C | 14% | 1015 hPa | 0 mm | - | 151 W/m² | - |
| 1777422797 | 28.33° C | 14% | 1015.1 hPa | 0 mm | - | 181 W/m² | - |
| 1777422493 | 28.33° C | 14% | 1015.2 hPa | 0 mm | - | 149 W/m² | - |
| 1777422189 | 28.33° C | 14% | 1014.9 hPa | 0 mm | - | 174 W/m² | - |
| 1777421888 | 27.78° C | 14% | 1014.9 hPa | 0 mm | - | 255 W/m² | - |
| 1777421584 | 27.78° C | 14% | 1014.6 hPa | 0 mm | - | 204 W/m² | - |
| 1777421279 | 27.78° C | 13% | 1014.8 hPa | 0 mm | - | 184 W/m² | - |
| 1777420976 | 28.33° C | 13% | 1014.9 hPa | 0 mm | - | 159 W/m² | - |
| 1777420672 | 28.33° C | 12% | 1014.8 hPa | 0 mm | - | 235 W/m² | - |
| 1777420368 | 28.33° C | 12% | 1014.8 hPa | 0 mm | - | 255 W/m² | - |
| 1777420064 | 28.89° C | 12% | 1014.8 hPa | 0 mm | - | 171 W/m² | - |
| 1777419761 | 29.44° C | 12% | 1014.8 hPa | 0 mm | - | 376 W/m² | - |
| 1777419458 | 28.89° C | 11% | 1014.7 hPa | 0 mm | - | 416 W/m² | - |
| 1777419158 | 28.33° C | 11% | 1014.9 hPa | 0 mm | - | 373 W/m² | - |
| 1777418852 | 28.33° C | 12% | 1014.8 hPa | 0 mm | - | 211 W/m² | - |
| 1777418549 | 28.33° C | 12% | 1014.8 hPa | 0 mm | - | 200 W/m² | - |
| 1777418246 | 28.33° C | 12% | 1015 hPa | 0 mm | - | 209 W/m² | - |
| 1777417942 | 28.89° C | 12% | 1014.9 hPa | 0 mm | - | 219 W/m² | - |
| 1777417638 | 28.33° C | 12% | 1015 hPa | 0 mm | - | 237 W/m² | - |
| 1777417333 | 28.89° C | 12% | 1014.9 hPa | 0 mm | - | 255 W/m² | - |
* Rain latest hour (hover to see other rain measurements)
** Current wind speed in m/s (hover to see current wind gust speed)